Weather History for PAGS - February, 2014

Change the Weather History Date:

Tuesday, February 11, 2014

  Actual Average Record
Temperature  
Mean Temperature 10 °F -  
Max Temperature 19 °F 36 °F 48 °F (2006)
Min Temperature 0 °F 18 °F -9 °F (1951)
Degree Days  
Heating Degree Days 56    
Moisture  
Dew Point -7 °F    
Average Humidity 47    
Maximum Humidity 92    
Minimum Humidity 28    
Precipitation  
Precipitation 0.00 in - - ()
Sea Level Pressure  
Sea Level Pressure 29.66 in    
Wind  
Wind Speed 4 mph (North)    
Max Wind Speed 10 mph    
Max Gust Speed -    
Visibility 10 miles    
Events      
Averages and records for this station are not official NWS values.
T = Trace of Precipitation, MM = Missing Value Source: NWS Daily Summary

Daily Weather History Graph

Daily Weather History Graph

Search for Another Location

Airport or City:

Trip Planner

Search our weather history database for the weather conditions in past years. The results will help you decide how hot, cold, wet, or windy it might be!

Date:

Astronomy

Feb. 11, 2014 Rise Set
Actual Time 7:44 AM AKST 4:50 PM AKST
Civil Twilight 7:02 AM AKST 5:32 PM AKST
Nautical Twilight 6:15 AM AKST 6:19 PM AKST
Astronomical Twilight 5:29 AM AKST 7:05 PM AKST
Moon 1:59 PM AKST (2/11) 5:46 AM AKST (2/11)
Length of Visible Light 10h 30m
Length of Day
9h 05m
Waxing Gibbous, 91% of the Moon is Illuminated
Feb 11
Waxing Gibbous
Feb 14
Full
Feb 22
Last Quarter
Feb 28
New
Mar 8
First Quarter

Hourly Weather History & Observations

Time (AKST) Temp. Windchill Dew Point Humidity Pressure Visibility Wind Dir Wind Speed Gust Speed Precip Events Conditions
12:16 AM 14.0 °F 8.2 °F -7.6 °F 38% 29.81 in 10.0 mi NNW 3.5 mph - N/A   Clear
12:36 AM 15.8 °F 8.6 °F -7.6 °F 35% 29.81 in 10.0 mi NNW 4.6 mph - N/A   Clear
12:56 AM 12.2 °F 6.1 °F -7.6 °F 41% 29.81 in 10.0 mi NNE 3.5 mph - N/A   Clear
1:16 AM 10.4 °F 0.8 °F -7.6 °F 44% 29.81 in 10.0 mi North 5.8 mph - N/A   Clear
1:36 AM 14.0 °F 8.2 °F -5.8 °F 41% 29.81 in 10.0 mi North 3.5 mph - N/A   Clear
1:56 AM 12.2 °F 4.3 °F -9.4 °F 38% 29.81 in 10.0 mi North 4.6 mph - N/A   Clear
2:16 AM 14.0 °F 5.1 °F -7.6 °F 38% 29.81 in 10.0 mi NNW 5.8 mph - N/A   Clear
2:36 AM 12.2 °F 6.1 °F -9.4 °F 38% 29.81 in 10.0 mi NNW 3.5 mph - N/A   Clear
2:56 AM 14.0 °F 8.2 °F -7.6 °F 38% 29.81 in 10.0 mi North 3.5 mph - N/A   Clear
3:16 AM 10.4 °F - -9.4 °F 41% 29.81 in 10.0 mi Calm Calm - N/A   Clear
3:36 AM 6.8 °F -0.1 °F -5.8 °F 56% 29.81 in 10.0 mi North 3.5 mph - N/A   Clear
3:56 AM 8.6 °F -2.6 °F -7.6 °F 48% 29.81 in 10.0 mi North 6.9 mph - N/A   Clear
4:16 AM 12.2 °F 6.1 °F -7.6 °F 41% 29.81 in 10.0 mi NNW 3.5 mph - N/A   Clear
4:36 AM 8.6 °F 2.0 °F -7.6 °F 48% 29.81 in 10.0 mi NW 3.5 mph - N/A   Clear
4:56 AM 8.6 °F 0.1 °F -5.8 °F 52% 29.82 in 10.0 mi NNW 4.6 mph - N/A   Clear
5:16 AM 8.6 °F 0.1 °F -5.8 °F 52% 29.81 in 10.0 mi NNE 4.6 mph - N/A   Clear
5:36 AM 12.2 °F 2.9 °F -7.6 °F 41% 29.81 in 10.0 mi NNW 5.8 mph - N/A   Clear
5:56 AM 10.4 °F 0.8 °F -7.6 °F 44% 29.81 in 10.0 mi North 5.8 mph - N/A   Clear
6:16 AM 8.6 °F 2.0 °F -7.6 °F 48% 29.80 in 10.0 mi North 3.5 mph - N/A   Clear
6:36 AM 5.0 °F -2.1 °F -7.6 °F 56% 29.80 in 10.0 mi North 3.5 mph - N/A   Clear
6:56 AM 6.8 °F - -7.6 °F 52% 29.80 in 10.0 mi Calm Calm - N/A   Clear
7:16 AM 5.0 °F - -5.8 °F 61% 29.80 in 10.0 mi Calm Calm - N/A   Clear
7:36 AM 3.2 °F -6.2 °F -5.8 °F 66% 29.80 in 10.0 mi North 4.6 mph - N/A   Clear
7:56 AM 10.4 °F 2.2 °F -5.8 °F 48% 29.80 in 10.0 mi North 4.6 mph - N/A   Clear
8:16 AM 6.8 °F - -9.4 °F 48% 29.80 in 10.0 mi Calm Calm - N/A   Clear
8:36 AM 5.0 °F - -0.4 °F 78% 29.80 in 10.0 mi Calm Calm - N/A   Clear
8:56 AM 8.6 °F 0.1 °F -2.2 °F 62% 29.79 in 10.0 mi North 4.6 mph - N/A   Clear
9:16 AM 10.4 °F - -2.2 °F 57% 29.79 in 10.0 mi Calm Calm - N/A   Clear
9:36 AM 14.0 °F - -0.4 °F 53% 29.78 in 10.0 mi Calm Calm - N/A   Clear
9:56 AM 15.8 °F - -5.8 °F 38% 29.78 in 10.0 mi Calm Calm - N/A   Clear
10:16 AM 17.6 °F - -7.6 °F 32% 29.78 in 10.0 mi Calm Calm - N/A   Clear
10:36 AM 17.6 °F 9.3 °F -7.6 °F 32% 29.78 in 10.0 mi NE 5.8 mph - N/A   Clear
10:56 AM 17.6 °F 5.7 °F -7.6 °F 32% 29.77 in 10.0 mi NNE 10.4 mph - N/A   Clear
11:16 AM 17.6 °F 7.3 °F -9.4 °F 30% 29.77 in 10.0 mi NNE 8.1 mph - N/A   Clear
11:36 AM 17.6 °F 9.3 °F -7.6 °F 32% 29.76 in 10.0 mi ENE 5.8 mph - N/A   Clear
11:56 AM 19.4 °F 9.5 °F -9.4 °F 28% 29.76 in 10.0 mi NNE 8.1 mph - N/A   Clear
12:16 PM 19.4 °F 9.5 °F -9.4 °F 28% 29.75 in 10.0 mi East 8.1 mph - N/A   Clear
12:36 PM 19.4 °F 11.5 °F -9.4 °F 28% 29.74 in 10.0 mi ENE 5.8 mph - N/A   Clear
12:56 PM 19.4 °F 8.6 °F -9.4 °F 28% 29.72 in 10.0 mi NE 9.2 mph - N/A   Clear
1:16 PM 19.4 °F 10.4 °F -9.4 °F 28% 29.71 in 10.0 mi ENE 6.9 mph - N/A   Clear
1:36 PM 19.4 °F 9.5 °F -9.4 °F 28% 29.69 in 10.0 mi NE 8.1 mph - N/A   Clear
1:56 PM 19.4 °F 12.8 °F -9.4 °F 28% 29.68 in 10.0 mi NNE 4.6 mph - N/A   Clear
2:16 PM 19.4 °F 10.4 °F -9.4 °F 28% 29.66 in 10.0 mi North 6.9 mph - N/A   Clear
2:36 PM 19.4 °F 12.8 °F -9.4 °F 28% 29.65 in 10.0 mi NE 4.6 mph - N/A   Clear
2:56 PM 19.4 °F 10.4 °F -9.4 °F 28% 29.63 in 10.0 mi NE 6.9 mph - N/A   Clear
3:16 PM 19.4 °F 9.5 °F -9.4 °F 28% 29.61 in 10.0 mi North 8.1 mph - N/A   Clear
3:36 PM 17.6 °F 7.3 °F -9.4 °F 30% 29.60 in 10.0 mi NNW 8.1 mph - N/A   Clear
3:56 PM 17.6 °F 8.2 °F -9.4 °F 30% 29.58 in 10.0 mi NNW 6.9 mph - N/A   Clear
4:16 PM 17.6 °F 10.7 °F -7.6 °F 32% 29.57 in 10.0 mi NNW 4.6 mph - N/A   Clear
4:36 PM 15.8 °F 7.2 °F -7.6 °F 35% 29.55 in 10.0 mi NW 5.8 mph - N/A   Clear
4:56 PM 14.0 °F 3.9 °F -7.6 °F 38% 29.53 in 10.0 mi NW 6.9 mph - N/A   Clear
5:16 PM 12.2 °F 2.9 °F -7.6 °F 41% 29.52 in 10.0 mi NNW 5.8 mph - N/A   Clear
5:36 PM 12.2 °F 2.9 °F -7.6 °F 41% 29.50 in 10.0 mi NNW 5.8 mph - N/A   Clear
5:56 PM 12.2 °F 6.1 °F -5.8 °F 45% 29.49 in 10.0 mi NNW 3.5 mph - N/A   Clear
6:16 PM 10.4 °F 4.0 °F -5.8 °F 48% 29.48 in 10.0 mi NNW 3.5 mph - N/A   Clear
6:36 PM 10.4 °F 2.2 °F -5.8 °F 48% 29.47 in 10.0 mi NNW 4.6 mph - N/A   Clear
6:56 PM 10.4 °F 4.0 °F -5.8 °F 48% 29.46 in 10.0 mi North 3.5 mph - N/A   Clear
7:16 PM 10.4 °F 2.2 °F -5.8 °F 48% 29.44 in 10.0 mi North 4.6 mph - N/A   Clear
7:36 PM 8.6 °F - -5.8 °F 52% 29.43 in 10.0 mi Calm Calm - N/A   Clear
7:56 PM 6.8 °F -0.1 °F -5.8 °F 56% 29.43 in 10.0 mi NNW 3.5 mph - N/A   Clear
8:16 PM 6.8 °F -0.1 °F -4.0 °F 61% 29.42 in 10.0 mi North 3.5 mph - N/A   Clear
8:36 PM 5.0 °F - -5.8 °F 61% 29.42 in 10.0 mi Calm Calm - N/A   Clear
8:56 PM 5.0 °F - -5.8 °F 61% 29.41 in 10.0 mi Calm Calm - N/A   Clear
9:16 PM 5.0 °F - -4.0 °F 66% 29.41 in 10.0 mi Calm Calm - N/A   Clear
9:36 PM 3.2 °F -4.2 °F -4.0 °F 72% 29.41 in 10.0 mi North 3.5 mph - N/A   Clear
9:56 PM 3.2 °F -6.2 °F -4.0 °F 72% 29.40 in 10.0 mi NNW 4.6 mph - N/A   Clear
10:16 PM 1.4 °F - -2.2 °F 85% 29.40 in 10.0 mi Calm Calm - N/A   Clear
10:36 PM 1.4 °F - -5.8 °F 72% 29.39 in 10.0 mi Calm Calm - N/A   Clear
10:56 PM 1.4 °F -6.2 °F -2.2 °F 85% 29.39 in 10.0 mi NNW 3.5 mph - N/A   Clear
11:16 PM -0.4 °F - -5.8 °F 78% 29.39 in 10.0 mi Calm Calm - N/A   Clear
11:36 PM -0.4 °F - -2.2 °F 92% 29.39 in 10.0 mi Calm Calm - N/A   Clear
11:56 PM -0.4 °F -12.0 °F -5.8 °F 78% 29.39 in 10.0 mi NNW 5.8 mph - N/A   Partly Cloudy